Notices

What's New in latest Release from April 7th, 2021:

- Updated Glossary, including Speed of Maximum Gust, and Total Hourly Precipitation

- Updated national and regional climate services offices contacts and prices information

- Addition of station inventory lists for 1981-2010, 1971-2000, and 1961-1990 Normals.

If you haven't already, please take our survey and provide feedback about our website: https://eccc.sondage-survey.ca/f/LanguageSelection.aspx?s=442ca660-fcf1-47c0-95a9-59707d6fd709

Hourly Data Report for September 12, 2017

VICTORIA UNIVERSITY CS
BRITISH COLUMBIA

48°27'25.200" N
123°18'16.600" W
60.10 m
1018598
71783
WYJ

Download Data

Hourly Data (September 2017)
Hourly Data Report for September 12, 2017
TIME
LST
Temp Definition
°C
Dew Point Definition
°C
Rel Hum Definition
%
Precip. Amount Definition
mm

Wind Dir Definition
10's deg

Wind Spd Definition
km/h
Visibility Definition
km
Stn Press Definition
kPa
Hmdx Definition


Wind Chill Definition


Weather Definition


00:00 13.6 12.0 90 0.0 36 2   100.88     LegendNANA
01:00 12.8 11.0 89 0.0 1 5   100.90     LegendNANA
02:00 12.3 10.9 91 0.0 29 1   100.90     LegendNANA
03:00 12.9 11.9 94 0.0 20 1   100.91     LegendNANA
04:00 14.3 12.2 87 0.0 16 2   100.88     LegendNANA
05:00 14.3 11.8 85 0.0 5 2   100.89     LegendNANA
06:00 14.3 11.9 86 0.0 11 2   100.90     LegendNANA
07:00 14.7 12.6 87 0.0 0 1   100.89     LegendNANA
08:00 15.1 12.8 86 0.0 0 1   100.91     LegendNANA
09:00 16.3 13.1 82 0.0 7 3   100.90     LegendNANA
10:00 15.9 12.5 80 0.0 11 4   100.92     LegendNANA
11:00 17.6 14.0 80 0.0 11 3   100.89     LegendNANA
12:00 16.7 12.9 78 0.0 8 5   100.88     LegendNANA
13:00 17.4 12.8 74 0.0 11 4   100.86     LegendNANA
14:00 18.3 13.6 74 0.0 12 3   100.81     LegendNANA
15:00 18.8 13.6 72 0.0 11 3   100.75     LegendNANA
16:00 18.6 13.4 72 0.0 9 4   100.73     LegendNANA
17:00 18.3 12.8 70 0.0 17 4   100.70     LegendNANA
18:00 14.1 11.4 84 0.0 6 2   100.67     LegendNANA
19:00 13.3 11.6 90 0.0 32 6   100.69     LegendNANA
20:00 13.3 11.5 89 0.0 31 5   100.72     LegendNANA
21:00 12.9 11.8 93 0.0 25 2   100.71     LegendNANA
22:00 13.7 11.1 84 0.0 25 4   100.71     LegendNANA
23:00 12.5 10.8 89 0.0 27 1   100.74     LegendNANA

Notes on Data Quality.

Legend

  • E = Estimated
  • M = Missing
  • NA = Not Available*
  • [empty] = Indicates an unobserved value
Date modified: